User: anonymous   Login
Location: Unspecified
(35.6961°N, 0.0000°E)
Time: 14:49:19
(UTC+00:00)
Language:

POLYITAN 1 - Orbit

View from above orbital plane
View from above orbital plane
View from above satellite
View from above satellite

Ground track
Ground track

The orbit data is extracted from the following two-line orbital elements,

1 40042U 14033AJ  19175.74631546  .00000166  00000-0  23790-4 0  9998
2 40042  97.9139  95.7334 0015571  34.2569 325.9649 14.88656748272139
Epoch (UTC): 24 June 2019 17:54:41
Eccentricity: 0.0015571
inclination: 97.9139°
perigee height: 591 km
apogee height: 613 km
right ascension of ascending node: 95.7334°
argument of perigee: 34.2569°
revolutions per day: 14.88656748
mean anomaly at epoch: 325.9649°
orbit number at epoch: 27213

The dashed part of the orbit path shows where the satellite is in the earth's shadow,  

DLR